• In Germany
  • List of Countries
  • For 7 days
  • Water Temperature
  • Satellite Maps
  • Weather Map
  • Weather Widgets
  • user-avatar
    Login

    Hourly Weather Armawir

    Today, 23 November, Thursday

    Time Temperature Precipitation Wind Pressure Humidity
    00:00 +2°C° 0 mm 1 mps 682 mmHg 70%
    01:00 +2°C° 0.1 mm 1 mps 682 mmHg 70%
    02:00 +2°C° 0.1 mm 1 mps 682 mmHg 69%
    03:00 +2°C° 0.1 mm 1 mps 683 mmHg 68%
    04:00 +1°C° 0.1 mm 2 mps 683 mmHg 69%
    05:00 +1°C° 0.1 mm 2 mps 683 mmHg 69%
    06:00 -1°C° 0.1 mm 2 mps 683 mmHg 69%
    07:00 +1°C° 0.1 mm 2 mps 683 mmHg 67%
    08:00 +2°C° 0.1 mm 2 mps 683 mmHg 65%
    09:00 +1°C° 0.1 mm 3 mps 684 mmHg 63%
    10:00 +2°C° 0.1 mm 3 mps 683 mmHg 60%
    11:00 +3°C° 0.1 mm 3 mps 683 mmHg 57%
    12:00 +4°C° 0.1 mm 3 mps 683 mmHg 54%
    13:00 +4°C° 0.1 mm 3 mps 683 mmHg 54%
    14:00 +4°C° 0.1 mm 3 mps 683 mmHg 55%
    15:00 +4°C° 0.1 mm 3 mps 683 mmHg 55%
    16:00 +4°C° 0.3 mm 2 mps 683 mmHg 59%
    17:00 +3°C° 0.3 mm 2 mps 684 mmHg 63%
    18:00 +3°C° 0.3 mm 2 mps 684 mmHg 67%
    19:00 +3°C° 0.3 mm 1 mps 685 mmHg 69%
    20:00 +3°C° 0.3 mm 1 mps 685 mmHg 72%
    21:00 +2°C° 0.3 mm 1 mps 685 mmHg 74%
    22:00 +2°C° 0.1 mm 1 mps 686 mmHg 76%
    23:00 +2°C° 0.1 mm 1 mps 686 mmHg 77%

    Tomorrow, 24 November, Friday

    Time Temperature Precipitation Wind Pressure Humidity
    00:00 +1°C° 0.1 mm 1 mps 686 mmHg 79%
    01:00 +1°C° 0.1 mm 1 mps 686 mmHg 77%
    02:00 +1°C° 0.1 mm 1 mps 686 mmHg 76%
    03:00 0°C° 0.1 mm 1 mps 686 mmHg 74%
    04:00 0°C° 0 mm 1 mps 686 mmHg 73%
    05:00 -1°C° 0 mm 1 mps 686 mmHg 72%
    06:00 -1°C° 0 mm 1 mps 686 mmHg 71%
    07:00 -1°C° 0 mm 1 mps 687 mmHg 68%
    08:00 0°C° 0 mm 1 mps 687 mmHg 65%
    09:00 0°C° 0 mm 1 mps 688 mmHg 62%
    10:00 +1°C° 0 mm 1 mps 687 mmHg 59%
    11:00 +1°C° 0 mm 1 mps 687 mmHg 55%
    12:00 +2°C° 0 mm 1 mps 687 mmHg 52%
    13:00 +2°C° 0 mm 1 mps 687 mmHg 51%
    14:00 +2°C° 0 mm 1 mps 687 mmHg 51%
    15:00 +2°C° 0 mm 1 mps 687 mmHg 50%
    16:00 +1°C° 0 mm 1 mps 687 mmHg 53%
    17:00 0°C° 0 mm 1 mps 688 mmHg 55%
    18:00 -3°C° 0 mm 2 mps 688 mmHg 57%
    19:00 -3°C° 0 mm 2 mps 689 mmHg 58%
    20:00 -3°C° 0 mm 2 mps 689 mmHg 58%
    21:00 -4°C° 0 mm 2 mps 689 mmHg 59%
    22:00 -4°C° 0 mm 2 mps 689 mmHg 59%
    23:00 -4°C° 0 mm 2 mps 689 mmHg 60%

    Day after tomorrow, 25 November, Saturday

    Time Temperature Precipitation Wind Pressure Humidity
    00:00 -4°C° 0 mm 2 mps 689 mmHg 61%
    01:00 -4°C° 0 mm 2 mps 690 mmHg 61%
    02:00 -4°C° 0 mm 2 mps 690 mmHg 61%
    03:00 -5°C° 0 mm 2 mps 690 mmHg 61%
    04:00 -5°C° 0 mm 2 mps 691 mmHg 62%
    05:00 -5°C° 0 mm 2 mps 691 mmHg 62%
    06:00 -5°C° 0 mm 2 mps 691 mmHg 62%
    07:00 -4°C° 0 mm 2 mps 692 mmHg 60%
    08:00 -3°C° 0 mm 2 mps 692 mmHg 58%
    09:00 -2°C° 0 mm 2 mps 693 mmHg 56%
    10:00 -1°C° 0 mm 2 mps 693 mmHg 54%
    11:00 +1°C° 0 mm 2 mps 693 mmHg 51%
    12:00 +2°C° 0 mm 2 mps 692 mmHg 49%
    13:00 +2°C° 0 mm 2 mps 692 mmHg 49%
    14:00 +2°C° 0 mm 2 mps 692 mmHg 48%
    15:00 +2°C° 0 mm 2 mps 692 mmHg 48%
    16:00 +1°C° 0 mm 2 mps 693 mmHg 50%
    17:00 -1°C° 0 mm 2 mps 693 mmHg 52%
    18:00 -3°C° 0 mm 2 mps 693 mmHg 54%
    19:00 -3°C° 0 mm 2 mps 693 mmHg 54%
    20:00 -3°C° 0 mm 2 mps 694 mmHg 54%
    21:00 -1°C° 0 mm 1 mps 694 mmHg 53%
    22:00 -2°C° 0 mm 1 mps 694 mmHg 53%
    23:00 -2°C° 0 mm 1 mps 694 mmHg 53%

    26 November, Sunday

    Time Temperature Precipitation Wind Pressure Humidity
    00:00 -2°C° 0 mm 1 mps 694 mmHg 53%
    01:00 -2°C° 0 mm 1 mps 694 mmHg 53%
    02:00 -2°C° 0 mm 1 mps 694 mmHg 52%
    03:00 -2°C° 0 mm 1 mps 694 mmHg 52%
    04:00 -2°C° 0 mm 1 mps 693 mmHg 51%
    05:00 -2°C° 0 mm 1 mps 693 mmHg 51%
    06:00 -2°C° 0 mm 1 mps 693 mmHg 50%
    07:00 -1°C° 0 mm 1 mps 693 mmHg 48%
    08:00 0°C° 0 mm 1 mps 694 mmHg 46%
    09:00 +1°C° 0 mm 1 mps 694 mmHg 44%
    10:00 +3°C° 0 mm 1 mps 693 mmHg 42%
    11:00 +4°C° 0 mm 1 mps 693 mmHg 40%
    12:00 +5°C° 0 mm 1 mps 692 mmHg 37%
    13:00 +5°C° 0 mm 1 mps 692 mmHg 37%
    14:00 +5°C° 0 mm 1 mps 692 mmHg 38%
    15:00 +5°C° 0 mm 1 mps 692 mmHg 38%
    16:00 +4°C° 0 mm 1 mps 692 mmHg 39%
    17:00 +3°C° 0 mm 1 mps 692 mmHg 41%
    18:00 +1°C° 0 mm 1 mps 692 mmHg 43%
    19:00 +1°C° 0 mm 1 mps 692 mmHg 42%
    20:00 +1°C° 0 mm 1 mps 693 mmHg 42%
    21:00 0°C° 0 mm 1 mps 693 mmHg 41%
    22:00 0°C° 0 mm 1 mps 693 mmHg 41%
    23:00 0°C° 0 mm 1 mps 693 mmHg 41%

    27 November, Monday

    Time Temperature Precipitation Wind Pressure Humidity
    00:00 0°C° 0 mm 1 mps 693 mmHg 40%
    01:00 0°C° 0 mm 1 mps 692 mmHg 40%
    02:00 0°C° 0 mm 1 mps 692 mmHg 40%
    03:00 -1°C° 0 mm 1 mps 692 mmHg 39%
    04:00 -1°C° 0 mm 1 mps 692 mmHg 39%
    05:00 -1°C° 0 mm 1 mps 692 mmHg 39%
    06:00 -1°C° 0 mm 1 mps 692 mmHg 39%
    07:00 0°C° 0 mm 1 mps 692 mmHg 38%
    08:00 +2°C° 0 mm 1 mps 692 mmHg 37%
    09:00 +3°C° 0 mm 1 mps 692 mmHg 36%
    10:00 +5°C° 0 mm 1 mps 692 mmHg 35%
    11:00 +6°C° 0 mm 1 mps 691 mmHg 33%
    12:00 +7°C° 0 mm 1 mps 690 mmHg 32%
    13:00 +7°C° 0 mm 1 mps 690 mmHg 32%
    14:00 +7°C° 0 mm 1 mps 690 mmHg 32%
    15:00 +7°C° 0 mm 1 mps 689 mmHg 32%
    16:00 +6°C° 0 mm 1 mps 689 mmHg 33%
    17:00 +4°C° 0 mm 1 mps 690 mmHg 34%
    18:00 +3°C° 0 mm 1 mps 690 mmHg 35%
    19:00 +2°C° 0 mm 1 mps 690 mmHg 35%
    20:00 +2°C° 0 mm 1 mps 690 mmHg 35%
    21:00 +2°C° 0 mm 1 mps 690 mmHg 35%
    22:00 +2°C° 0 mm 1 mps 690 mmHg 36%
    23:00 +1°C° 0 mm 1 mps 690 mmHg 36%

    28 November, Tuesday

    Time Temperature Precipitation Wind Pressure Humidity
    00:00 +1°C° 0 mm 1 mps 690 mmHg 37%
    01:00 +1°C° 0 mm 1 mps 689 mmHg 38%
    02:00 +1°C° 0 mm 1 mps 689 mmHg 38%
    03:00 +1°C° 0 mm 1 mps 689 mmHg 39%
    04:00 +1°C° 0 mm 1 mps 689 mmHg 40%
    05:00 +1°C° 0 mm 1 mps 689 mmHg 41%
    06:00 +1°C° 0 mm 1 mps 689 mmHg 41%
    07:00 +2°C° 0 mm 1 mps 689 mmHg 42%
    08:00 +3°C° 0 mm 1 mps 689 mmHg 42%
    09:00 +4°C° 0 mm 1 mps 689 mmHg 42%
    10:00 +5°C° 0 mm 2 mps 689 mmHg 43%
    11:00 +6°C° 0 mm 2 mps 689 mmHg 43%
    12:00 +7°C° 0 mm 2 mps 688 mmHg 43%
    13:00 +7°C° 0 mm 2 mps 688 mmHg 45%
    14:00 +7°C° 0 mm 2 mps 688 mmHg 47%
    15:00 +7°C° 0 mm 2 mps 687 mmHg 49%
    16:00 +6°C° 0 mm 2 mps 688 mmHg 52%
    17:00 +5°C° 0 mm 2 mps 688 mmHg 54%
    18:00 +3°C° 0 mm 2 mps 688 mmHg 57%
    19:00 +3°C° 0 mm 2 mps 689 mmHg 58%
    20:00 +4°C° 0 mm 1 mps 689 mmHg 60%
    21:00 +4°C° 0 mm 1 mps 689 mmHg 61%
    22:00 +4°C° 0 mm 1 mps 689 mmHg 62%
    23:00 +3°C° 0 mm 1 mps 689 mmHg 63%
    Show more